Regional Weather Roundup
Issued by NWS

Home | Current Version | Previous Version | Graphics & Text | Print | Product List | Glossary On
Versions: 1 2 3 4 5 6 7 8 9 10 11 12 13 14 15 16 17 18 19 20 21 22 23 24 25 26 27 28 29 30 31 32 33 34 35 36 37 38 39 40 41 42 43 44 45 46 47 48 49 50
000
ASUS43 KLOT 171603
RWRIL

ILLINOIS REGIONAL WEATHER ROUNDUP
NATIONAL WEATHER SERVICE CHICAGO/ROMEOVILLE IL
1000 AM CST FRI NOV 17 2017

NOTE: "FAIR" INDICATES FEW OR NO CLOUDS BELOW 12,000 FEET WITH NO
SIGNIFICANT WEATHER AND/OR OBSTRUCTIONS TO VISIBILITY.

* THESE STATIONS ARE NOT UNDER NWS QUALITY CONTROL. THEY ALSO MAY NOT
  REPORT WEATHER SUCH AS PRECIPITATION OR FOG.

ILZ001-002-007-009-015-016-024-171700-
NORTHWEST ILLINOIS

CITY           SKY/WX    TMP DP  RH WIND       PRES   REMARKS
MOLINE         CLOUDY    38  32  79 SE10G23   29.89F WCI  31
STERLING*      CLOUDY    36  31  82 SE13G18   29.96F WCI  27
SAVANNA*       CLOUDY    37  31  82 S16       29.92F WCI  27
$$

ILZ003-004-008-010-011-017-018-171700-
NORTH CENTRAL ILLINOIS

CITY           SKY/WX    TMP DP  RH WIND       PRES   REMARKS
ROCKFORD       CLOUDY    36  30  79 S22G29    29.99F WCI  25
FREEPORT*      CLOUDY    37  31  79 SE18G25   29.96F WCI  26
ROCHELLE*      CLOUDY    36  32  87 SE16      29.98F WCI  26
DE KALB*       CLOUDY    36  31  83 SE23      29.99F WCI  25
PERU*          CLOUDY    34  30  85 SE18      29.99F WCI  23
$$

ILZ005-006-012>014-019>023-171700-
NORTHEAST ILLINOIS

CITY           SKY/WX    TMP DP  RH WIND       PRES   REMARKS
CHICAGO-OHARE  CLOUDY    39  31  72 S15       30.02F WCI  31
CHICAGO-MIDWAY CLOUDY    39  31  72 S18       30.03F WCI  30
AURORA         CLOUDY    37  31  78 SE18G26   30.01F WCI  27
LANSING*       CLOUDY    39  34  83 S15       30.06F WCI  31
JOLIET*        CLOUDY    39  32  77 SE13      30.04F WCI  31
WAUKEGAN       CLOUDY    39  32  76 S12G20    30.00F WCI  32
DUPAGE AIRPORT CLOUDY    37  31  78 S18G30    30.00F WCI  27
KANKAKEE*      PTSUNNY   38  32  79 SE17      30.07F WCI  28
WHEELING       CLOUDY    39  32  76 S12       30.04F WCI  32
MORRIS*        CLOUDY    37  31  81 SE20      30.02F WCI  26
ROMEOVILLE*    CLOUDY    37  32  82 S14G23    30.03F WCI  28
NORTHERLY ISL    N/A     39  31  73 SE13        N/A  WCI  31
$$

LMZ740>746-171700-
SOUTHERN LAKE MICHIGAN

STATION/POSITION SKY/WX   TEMP    WIND        PRES    VSBY  WAVE
                          AIR SEA DIR/SP/G                  HT/PER
                          (F)     (DEG/KT/KT) (MB)    (MI)  (FT/S)
SOUTHERN BUOY              41 50  160/ 21/ 25 1018.8          5/ 5
HARRISON CRIB              38     180/ 21/ 24   N/A
BURNHAM HARBOR             39     150/ 11/ 17   N/A
CALUMET HARBOR             37     150/ 12/ 19 1017.2F
BURNS HARBOR               39     160/  7/ 14 1019.0F
MICHIGAN CITY              37     150/ 13/ 17   N/A
$$

ILZ025>027-034>036-040-047-049-050-058-095>099-171700-
WEST-CENTRAL ILLINOIS

CITY           SKY/WX    TMP DP  RH WIND       PRES   REMARKS
QUINCY         CLOUDY    41  35  79 S15       29.89F
GALESBURG*     RAIN      37  34  90 SE9G17    29.93F WCI  30
MACOMB*        CLOUDY    37  35  92 SE17G24   29.94F FOG     WCI  27
JACKSONVILLE*  CLOUDY    38  34  87 SE12G21   29.97F FOG     WCI  30
PITTSFIELD*    CLOUDY    39  36  89 SE15      29.94F FOG     WCI  31
$$

ILZ028>032-037-038-041>044-048-051>054-059>061-171700-
CENTRAL ILLINOIS

CITY           SKY/WX    TMP DP  RH WIND       PRES   REMARKS
PONTIAC        CLOUDY    36  35  96 SE16G23   30.04F WCI  26
BLOOMINGTON    CLOUDY    34  31  88 S17       30.02F WCI  23
DECATUR        CLOUDY    35  32  88 SE13      30.07R FOG     WCI  26
PEORIA         CLOUDY    37  32  82 S15G26    29.98F WCI  28
LACON*         CLOUDY    36  32  85 SE15      29.98F WCI  27
LINCOLN*       CLOUDY    36  34  94 S14       30.02F FOG     WCI  27
SPRINGFIELD    CLOUDY    38  35  89 SE20G30   30.00F FOG     WCI  28
TAYLORVILLE    CLOUDY    35  33  92 SE14      30.03F FOG     WCI  26
$$

ILZ033-039-045-046-055>057-062-063-171700-
EAST-CENTRAL ILLINOIS

CITY           SKY/WX    TMP DP  RH WIND       PRES   REMARKS
CHAMPAIGN      CLOUDY    34  30  85 SE14      30.07F WCI  25
DANVILLE*      CLOUDY    35  31  85 SE15      30.07S WCI  25
RANTOUL*       CLOUDY    34  32  92 S14G21    30.08S FOG     WCI  25
MATTOON        CLOUDY    32  31  96 S16G25    30.08F FOG     WCI  21
PARIS*         CLOUDY    34  32  93 SE15      30.12S WCI  24
$$

ILZ079-100>102-171700-
SOUTHWEST ILLINOIS

CITY           SKY/WX    TMP DP  RH WIND       PRES   REMARKS
ALTON          CLOUDY    39  37  93 SE13      30.01F FOG     WCI  32
BELLEVILLE     CLOUDY    40  35  82 SE10      30.03F
CAHOKIA*       CLOUDY    42  36  79 S13       30.01F
SPARTA*        CLOUDY    39  36  89 SE9G16    30.06F WCI  33
$$

ILZ064>066-069>071-074>076-080>082-084>086-088>090-092>094-171700-
SOUTH-CENTRAL ILLINOIS

CITY           SKY/WX    TMP DP  RH WIND       PRES   REMARKS
CARBONDALE     CLOUDY    44  38  79 S7        30.10R
CAIRO*         CLOUDY    46  40  82 SE6       30.10F
EFFINGHAM*     CLOUDY    35  35 100 SE12      30.12S FOG     WCI  26
MARION         CLOUDY    45  43  93 SE9       30.11F
CENTRALIA*     CLOUDY    39  36  90 SE10      30.08F FOG     WCI  32
SALEM*         CLOUDY    38  34  88 SE9       30.09F FOG     WCI  31
$$

ILZ067-068-072-073-078-083-087-091-171700-
SOUTHEAST ILLINOIS

CITY           SKY/WX    TMP DP  RH WIND       PRES   REMARKS
LAWRENCEVILLE  CLOUDY    36  34  92 SE10      30.15F FOG     WCI  28
FLORA*         CLOUDY    36  36  98 SE10      30.12F FOG     WCI  29
FAIRFIELD*     CLOUDY    37  37 100 SE6       30.12F FOG     WCI  32
HARRISBURG*    CLOUDY    40  37  91 SE10      30.13F FOG
ROBINSON*      CLOUDY    33  33  96 SE12      30.15F FOG     WCI  25
CARMI*         CLOUDY    37  37 100 SE10      30.15R FOG     WCI  30
$$

ABBREVIATIONS USED IN REMARKS
   TC - TEMPERATURE IN CELSIUS
  WCI - WIND CHILL INDEX
   HX - HEAT INDEX
  VSB - VISIBILITY
$$





USA.gov is the U.S. government's official web portal to all federal, state and local government web resources and services.